ONEWEB-0148

Last updated on Sun Apr 25 2021 00:02:03 GMT+0000 (Coordinated Universal Time)

1 48059U 21025T 21114.58336806 -.01098118 00000-0 -52753-1 0 9997 2 48059 87.4140 339.3552 0011079 144.8883 280.7317 15.21912549 1789

Satellite not in orbit